FW6122 Weather Reports


Display with metric or nautical units.
time (UTC)temp
F
wind
direction
speed
MPH
gust
MPH
rain 1hr
in
rain 24hr
in
rain mn
in
humidity
%
barometer
mb
20260503200037 65 188 4.0 10.0 0.00 0.00 0.00 38 1008.7
20260503194541 64 239 3.0 8.0 0.00 0.00 0.00 37 1008.8
20260503193040 64 212 3.0 11.0 0.00 0.00 0.00 35 1009.0
20260503191533 64 184 3.0 9.0 0.00 0.00 0.00 33 1009.3
20260503190040 65 167 3.0 8.0 0.00 0.00 0.00 30 1009.5
20260503184530 65 155 3.0 8.0 0.00 0.00 0.00 32 1009.6
20260503183029 64 186 4.0 9.0 0.00 0.00 0.00 31 1009.8
20260503181530 63 165 4.0 12.0 0.00 0.00 0.00 30 1009.9
20260503180029 64 186 3.0 12.0 0.00 0.00 0.00 30 1009.9
20260503174528 64 214 3.0 6.0 0.00 0.00 0.00 30 1010.1
20260503173025 63 119 3.0 7.0 0.00 0.00 0.00 29 1010.2
20260503171523 63 173 2.0 7.0 0.00 0.00 0.00 32 1010.0
20260503140103 51 192 0.0 2.0 0.00 0.00 0.00 40 1009.2
20260503081534 55 203 1.0 3.0 0.00 0.00 0.00 31 1011.3
20260503071504 53 205 0.0 0.0 0.00 0.00 0.00 34 1012.0
20260503054558 55 200 1.0 2.0 0.00 0.00 0.00 34 1013.0
20260503053058 55 200 1.0 2.0 0.00 0.00 0.00 34 1012.9
20260503051558 55 200 0.0 2.0 0.00 0.00 0.00 34 1012.7
20260503050100 54 200 0.0 0.0 0.00 0.00 0.00 35 1012.6
20260503044556 53 200 0.0 1.0 0.00 0.00 0.00 37 1012.5
20260503043056 54 200 0.0 1.0 0.00 0.00 0.00 38 1012.4
20260503041556 54 200 0.0 0.0 0.00 0.00 0.00 36 1012.3
20260503040059 54 200 0.0 0.0 0.00 0.00 0.00 35 1012.1
20260503034608 55 200 0.0 0.0 0.00 0.00 0.00 37 1012.1
20260503033057 55 200 0.0 0.0 0.00 0.00 0.00 37 1011.8
20260503031555 55 200 0.0 0.0 0.00 0.00 0.00 37 1011.7
20260503030053 56 200 0.0 0.0 0.00 0.00 0.00 45 1011.7
20260503024553 57 200 0.0 1.0 0.00 0.00 0.00 53 1011.5
20260503023052 58 200 0.0 2.0 0.00 0.00 0.00 56 1011.4
20260503021551 59 200 1.0 3.0 0.00 0.00 0.00 53 1011.3
20260503020052 60 200 0.0 1.0 0.00 0.00 0.00 49 1011.3
20260503014603 61 199 0.0 3.0 0.00 0.00 0.00 47 1011.1
20260503013050 62 171 0.0 5.0 0.00 0.00 0.00 47 1011.2
20260503011550 62 232 0.0 4.0 0.00 0.00 0.00 46 1011.0
20260503010051 63 219 0.0 4.0 0.00 0.00 0.00 46 1011.1
20260503004548 65 190 1.0 4.0 0.00 0.00 0.00 42 1011.0
20260503003053 67 143 1.0 3.0 0.00 0.00 0.00 37 1011.2
20260503001604 67 52 0.0 4.0 0.00 0.00 0.00 26 1011.0
20260503000047 67 53 1.0 8.0 0.00 0.00 0.00 24 1011.0
20260502234548 67 56 2.0 8.0 0.00 0.00 0.00 24 1011.1
20260502233040 67 300 1.0 10.0 0.00 0.00 0.00 24 1011.2
20260502231538 67 24 1.0 8.0 0.00 0.00 0.00 24 1011.1
20260502230039 67 167 1.0 8.0 0.00 0.00 0.00 23 1011.3
20260502224535 67 38 0.0 9.0 0.00 0.00 0.00 23 1011.3
20260502223034 68 42 2.0 7.0 0.00 0.00 0.00 23 1011.7
20260502221535 69 288 1.0 8.0 0.00 0.00 0.00 22 1011.8
20260502220034 68 98 2.0 11.0 0.00 0.00 0.00 22 1012.1
20260502214526 68 38 5.0 10.0 0.00 0.00 0.00 22 1012.3
20260502213025 67 12 5.0 12.0 0.00 0.00 0.00 22 1012.7
20260502211523 67 135 2.0 12.0 0.00 0.00 0.00 24 1012.6
20260502210022 67 300 4.0 12.0 0.00 0.00 0.00 22 1012.6
20260502204519 67 5 3.0 11.0 0.00 0.00 0.00 23 1013.0
20260502203024 66 342 5.0 13.0 0.00 0.00 0.00 22 1013.0
20260502201521 66 39 6.0 14.0 0.00 0.00 0.00 22 1013.1